This demonstration page uses our WeatherBlox Daily Observations layout. Learn more.

Left ArrowRight Arrow

40.92945, -100.16068

Hourly Observations for December 23, 2020

Temp ( °F °C ) Dew Point ( °F °C ) Humidity (%) Winds ( mph kmh ) Pressure ( in mb ) Visibility ( mi km ) Precip ( " mm )
12:15 am 00:15 Clear 39 4 32 0.1 76 76 NW 18 30 29.44 997 10 16.0934 0 0
12:35 am 00:35 Partly Cloudy 43 6.1 36 2.1 76 76 W 21 33 29.47 998 10 16.0934 0 0
12:55 am 00:55 Mostly Cloudy 46 7.5 37 2.8 72 72 WNW 26 43 29.47 998 10 16.0934 0 0
1:15 am 01:15 Cloudy 45 7 36 2.4 73 73 NW 32 52 29.48 998 10 16.0934 0 0
1:35 am 01:35 Cloudy with Drizzle 42 5.8 37 2.5 80 80 NW 32 52 29.51 999 10 16.0934 0 0
1:55 am 01:55 Cloudy with Light Rain 39 3.9 35 1.7 86 86 NNW 26 43 29.54 1000 10 16.0934 0 0
2:15 am 02:15 Cloudy with Light Rain 37 2.6 34 1 89 89 NNW 29 46 29.55 1001 10 16.0934 0 0
2:35 am 02:35 Cloudy with Light Rain 36 2.1 33 0.5 89 89 NNW 22 35 29.59 1002 10 16.0934 0 0
2:55 am 02:55 Windy with Snow Likely 34 1 32 0 93 93 NW 28 44 29.64 1004 1.5 2.41401 0.01 0.254
3:15 am 03:15 Cloudy with Snow 33 0.5 31 -0.4 94 94 NW 28 44 29.68 1005 0.25 0.402335 0 0
3:35 am 03:35 Windy with Snow Likely 33 0.3 31 -0.5 94 94 NNW 25 41 29.68 1005 3 4.82802 0 0
3:55 am 03:55 Windy with Snow Likely 32 0.2 30 -1.1 91 91 NW 25 41 29.68 1005 4 6.43736 0 0
4:15 am 04:15 Windy with Snow Likely 32 0 29 -1.5 90 90 NW 26 43 29.72 1006 4 6.43736 0 0
4:35 am 04:35 Cloudy 32 0 28 -2.4 84 84 NW 37 59 29.74 1007 10 16.0934 0 0
4:55 am 04:55 Cloudy 31 -0.5 26 -3.3 82 82 NW 32 52 29.74 1007 7 11.26538 0 0
5:15 am 05:15 Cloudy with Haze 31 -0.8 25 -3.9 80 80 NW 33 54 29.76 1008 5 8.0467 0 0
5:35 am 05:35 Windy with Snow Likely 30 -1.1 24 -4.4 79 79 NW 33 54 29.79 1009 7 11.26538 0 0
5:55 am 05:55 Windy with Snow Likely 29 -1.6 24 -4.5 81 81 NW 35 56 29.8 1009 2 3.21868 0 0
6:15 am 06:15 Windy with Snow Likely 28 -2.3 23 -5 82 82 NW 33 54 29.82 1010 2 3.21868 0 0
6:35 am 06:35 Windy with Snow Likely 27 -2.9 24 -4.7 88 88 NW 32 52 29.83 1010 1.5 2.41401 0 0
6:55 am 06:55 Very Windy with Snow Likely 26 -3.5 22 -5.8 84 84 NW 40 65 29.87 1012 1.75 2.816345 0 0
7:15 am 07:15 Windy with Snow Likely 25 -4 20 -6.8 81 81 NW 35 56 29.88 1012 1.75 2.816345 0 0
7:35 am 07:35 Cloudy with Snow 23 -4.8 20 -6.8 86 86 NW 30 48 29.89 1012 0.75 1.207005 0 0
7:55 am 07:55 Very Windy with Snow Likely 22 -5.5 18 -7.6 85 85 NW 43 69 29.93 1014 1.25 2.011675 0 0
8:15 am 08:15 Very Windy with Snow Likely 21 -6 17 -8.5 83 83 NW 38 61 29.94 1014 0.75 1.207005 0 0
8:35 am 08:35 Very Windy with Snow Likely 22 -5.8 17 -8.2 83 83 NW 41 67 29.94 1014 0.75 1.207005 0 0
8:55 am 08:55 Windy with Snow Likely 21 -6 17 -8.3 84 84 NW 32 52 29.96 1014 1 1.60934 0 0
9:15 am 09:15 Windy with Snow Likely 21 -6 17 -8.1 85 85 NW 31 50 29.97 1015 0.75 1.207005 0 0
9:35 am 09:35 Windy with Snow Likely 22 -5.8 17 -8.1 84 84 NW 28 44 29.99 1015 1 1.60934 0 0
9:55 am 09:55 Windy with Snow Likely 22 -5.7 18 -7.8 85 85 NW 26 43 29.99 1016 1 1.60934 0 0
10:15 am 10:15 Windy with Snow Likely 22 -5.6 19 -7.5 87 87 NW 23 37 30 1016 0.75 1.207005 0 0
10:35 am 10:35 Windy with Snow Likely 23 -5.2 19 -7.1 87 87 NW 29 46 30.01 1016 0.75 1.207005 0 0
10:55 am 10:55 Cloudy with Snow 23 -5 20 -6.5 89 89 NW 28 44 30.02 1016 0.5 0.80467 0 0
11:15 am 11:15 Cloudy with Snow 23 -5 20 -6.6 89 89 NW 30 48 30.04 1017 0.25 0.402335 0 0
11:35 am 11:35 Cloudy with Snow 23 -4.8 20 -6.5 88 88 NW 38 61 30.06 1018 0.25 0.402335 0 0
11:55 am 11:55 Very Windy with Snow Likely 24 -4.6 20 -6.5 87 87 NW 43 69 30.06 1018 0.5 0.80467 0 0
12:15 pm 12:15 Cloudy with Snow 24 -4.6 20 -6.4 87 87 NNW 38 61 30.08 1019 0.5 0.80467 0 0
12:35 pm 12:35 Cloudy with Snow 23 -5 20 -6.6 89 89 NW 38 61 30.1 1019 0.25 0.402335 0 0
12:55 pm 12:55 Windy with Snow Likely 23 -5.1 19 -7.1 86 86 NNW 35 56 30.12 1020 0.25 0.402335 0 0
1:15 pm 13:15 Windy with Snow Likely 23 -5 18 -7.8 81 81 NNW 33 54 30.13 1020 1.5 2.41401 0 0
1:35 pm 13:35 Windy with Snow Likely 23 -5 16 -8.8 75 75 NNW 32 52 30.14 1021 1.5 2.41401 0 0
1:55 pm 13:55 Cloudy with Haze 23 -5.1 15 -9.7 70 70 NNW 39 63 30.16 1021 1 1.60934 0 0
2:15 pm 14:15 Windy with Snow Likely 23 -5 15 -9.3 72 72 NNW 37 59 30.17 1022 1.25 2.011675 0 0
2:35 pm 14:35 Mostly Cloudy with Haze 23 -5 14 -9.8 69 69 NNW 31 50 30.18 1022 4 6.43736 0 0
2:55 pm 14:55 Cloudy with Haze 24 -4.6 15 -9.3 70 70 NNW 32 52 30.18 1022 2 3.21868 0 0
3:15 pm 15:15 Mostly Cloudy with Haze 24 -4.5 15 -9.4 69 69 NNW 31 50 30.18 1022 2.5 4.02335 0 0
3:35 pm 15:35 Mostly Cloudy with Haze 24 -4.2 15 -9.4 67 67 NNW 33 54 30.2 1023 2 3.21868 0 0
3:55 pm 15:55 Mostly Cloudy with Light Snow 25 -4.1 15 -9.6 66 66 NNW 31 50 30.2 1023 0.75 1.207005 0 0
4:15 pm 16:15 Hazy 24 -4.2 14 -9.9 65 65 NW 26 43 30.22 1023 3 4.82802 0 0
4:35 pm 16:35 Hazy 24 -4.2 13 -10.4 62 62 NW 29 46 30.24 1024 3 4.82802 0 0
4:55 pm 16:55 Sunny 24 -4.6 14 -10.2 65 65 NW 26 43 30.24 1024 10 16.0934 0 0
5:15 pm 17:15 Sunny 23 -4.9 14 -10.2 67 67 NW 23 37 30.26 1025 10 16.0934 0 0
5:35 pm 17:35 Clear 22 -5.3 12 -10.9 65 65 NW 20 31 30.27 1025 10 16.0934 0 0
5:55 pm 17:55 Clear 22 -5.5 12 -11.2 65 65 NW 21 33 30.28 1026 10 16.0934 0 0
6:15 pm 18:15 Clear 22 -5.8 12 -11.2 66 66 NW 18 30 30.3 1026 10 16.0934 0 0
6:35 pm 18:35 Clear 21 -6.1 12 -11.3 67 67 WNW 15 24 30.3 1026 10 16.0934 0 0
6:55 pm 18:55 Clear 20 -6.5 11 -11.5 68 68 WNW 15 24 30.31 1027 10 16.0934 0 0
7:15 pm 19:15 Clear 20 -6.8 11 -11.6 69 69 WNW 14 22 30.32 1027 10 16.0934 0 0
7:35 pm 19:35 Clear 19 -7.4 11 -11.7 72 72 WNW 13 20 30.32 1027 10 16.0934 0 0
7:55 pm 19:55 Clear 19 -7.5 11 -11.7 72 72 WNW 15 24 30.32 1027 10 16.0934 0 0
8:15 pm 20:15 Clear 19 -7.1 11 -11.5 71 71 WNW 17 28 30.32 1027 10 16.0934 0 0
8:35 pm 20:35 Clear 19 -7 11 -11.8 69 69 WNW 18 30 30.32 1027 10 16.0934 0 0
8:55 pm 20:55 Clear 20 -6.7 10 -12.3 65 65 NW 18 30 30.32 1027 10 16.0934 0 0
9:15 pm 21:15 Clear 20 -6.9 10 -12.3 66 66 WNW 15 24 30.32 1027 10 16.0934 0 0
9:35 pm 21:35 Clear 19 -7.5 10 -12.4 68 68 WNW 14 22 30.31 1027 10 16.0934 0 0
9:55 pm 21:55 Clear 18 -7.7 10 -12.5 69 69 WNW 16 26 30.32 1027 10 16.0934 0 0
10:15 pm 22:15 Clear 18 -7.6 9 -12.6 68 68 WNW 16 26 30.31 1026 10 16.0934 0 0
10:35 pm 22:35 Clear 19 -7.5 9 -12.9 66 66 WNW 16 26 30.3 1026 10 16.0934 0 0
10:55 pm 22:55 Clear 18 -7.7 8 -13.1 66 66 WNW 18 30 30.3 1026 10 16.0934 0 0
11:15 pm 23:15 Mostly Cloudy 18 -7.6 8 -13.2 65 65 NW 18 30 30.3 1026 10 16.0934 0 0
11:35 pm 23:35 Partly Cloudy 18 -7.6 8 -13.5 63 63 WNW 18 30 30.3 1026 10 16.0934 0 0
11:55 pm 23:55 Clear 18 -8 8 -13.5 65 65 WNW 17 28 30.29 1026 10 16.0934 0 0

Powered by AerisWeather